Date,TemperatureHighF,TemperatureAvgF,TemperatureLowF,DewpointHighF,DewpointAvgF,DewpointLowF,HumidityHigh,HumidityAvg,HumidityLow,PressureMaxIn,PressureMinIn,WindSpeedMaxMPH,WindSpeedAvgMPH,GustSpeedMaxMPH,PrecipitationSumIn
2013-1-1,36,31,27,36,31,27,100,100,98,30.53,30.39,1,0,2,0.00
2013-1-2,40,33,28,35,30,27,100,91,64,30.40,30.23,1,0,4,0.00
2013-1-3,41,34,27,36,27,23,99,79,51,30.23,30.13,2,0,7,0.05
2013-1-4,47,41,36,46,41,36,100,99,96,30.35,30.19,2,0,5,0.09
2013-1-5,41,39,38,40,38,36,100,97,87,30.23,30.13,1,0,6,0.19
2013-1-6,43,39,37,41,39,37,100,98,93,30.21,30.02,2,0,7,0.54
2013-1-7,47,43,39,47,43,39,100,100,99,30.18,29.86,3,0,12,1.66
2013-1-8,49,44,39,49,44,39,100,100,99,30.19,29.76,4,1,18,0.86
2013-1-9,48,38,33,48,38,33,100,99,98,29.97,29.69,3,0,11,1.71
2013-1-10,34,32,28,34,32,28,100,100,100,30.14,29.96,0,0,3,0.12
2013-1-11,31,28,24,31,28,24,100,100,98,30.36,30.13,0,0,0,0.01
2013-1-12,30,25,22,30,25,22,100,99,98,30.48,30.35,0,0,0,0.00
2013-1-13,32,26,20,31,26,20,100,99,95,30.53,30.47,0,0,0,0.00
2013-1-14,33,31,29,33,31,29,100,99,98,30.60,30.51,0,0,1,0.01
2013-1-15,36,32,27,36,32,27,100,100,98,30.73,30.60,0,0,0,0.01
2013-1-16,36,30,24,36,30,24,100,100,98,30.71,30.55,0,0,0,0.01
2013-1-17,38,32,27,38,32,27,100,100,100,30.56,29.61,0,0,1,0.01
2013-1-18,36,31,26,36,31,26,100,100,99,30.34,30.25,1,0,2,0.00
2013-1-19,32,27,22,32,27,22,100,99,98,30.38,30.33,0,0,1,0.00
2013-1-20,36,28,22,36,28,22,100,100,98,30.39,30.26,0,0,1,0.00
2013-1-21,34,27,22,34,27,22,100,99,98,30.26,30.12,1,0,2,0.00
2013-1-22,39,32,23,38,32,23,100,99,94,30.15,29.90,2,0,3,0.07
2013-1-23,43,38,36,40,36,31,100,92,66,30.14,29.85,1,0,7,0.68
2013-1-24,42,38,36,41,38,36,100,99,91,30.22,30.06,1,0,5,0.46
2013-1-25,47,42,37,45,42,37,100,99,93,30.06,29.93,1,0,5,0.24
2013-1-26,38,37,35,38,37,35,100,100,98,30.02,29.88,1,0,4,1.16
2013-1-27,39,36,34,39,36,33,100,100,99,30.05,29.98,2,0,5,0.82
2013-1-28,36,34,33,36,34,33,100,100,100,30.08,29.99,0,0,4,2.08
2013-1-29,42,38,35,42,38,35,100,100,100,30.34,30.08,0,0,3,2.20
2013-1-30,47,43,40,47,43,40,100,100,100,30.38,30.33,0,0,2,1.00
2013-1-31,45,44,43,45,44,43,100,100,98,30.37,30.31,0,0,3,0.35
2013-2-1,48,42,35,47,42,35,100,99,94,30.41,30.33,0,0,2,0.10
2013-2-2,45,37,31,44,36,31,100,100,94,30.39,30.26,1,0,3,0.01
2013-2-3,45,40,32,45,40,32,100,100,99,30.31,30.22,0,0,4,0.30
2013-2-4,47,43,41,46,43,41,100,99,90,30.22,29.89,2,0,5,0.31
2013-2-5,46,43,42,45,42,41,100,98,95,29.91,29.85,2,0,8,0.25
2013-2-6,46,43,40,42,41,39,98,93,81,30.05,29.80,2,0,10,0.05
2013-2-7,44,39,31,41,38,31,100,95,80,30.18,29.81,3,0,11,0.28
2013-2-8,40,34,28,39,34,28,100,98,89,30.29,30.18,0,0,2,0.03
2013-2-9,41,38,35,40,37,35,100,99,97,30.34,30.26,0,0,3,0.06
2013-2-10,42,37,29,41,36,29,100,98,89,30.37,30.32,0,0,2,0.01
2013-2-11,41,38,35,41,38,35,100,100,98,30.36,30.32,1,0,4,0.07
2013-2-12,46,43,39,45,43,39,100,99,97,30.40,30.28,2,0,6,0.06
2013-2-13,45,42,40,45,42,39,100,99,92,30.50,30.30,1,0,7,0.20
2013-2-14,47,43,39,45,42,39,100,98,89,30.56,30.49,1,0,5,0.12
2013-2-15,52,42,33,47,41,33,100,96,78,30.55,30.18,1,0,3,0.01
2013-2-16,45,42,38,45,42,38,100,99,95,30.19,30.13,1,0,4,1.07
2013-2-17,41,38,34,40,37,34,100,99,94,30.24,30.13,1,0,4,0.43
2013-2-18,44,36,31,39,35,31,100,96,82,30.12,29.77,1,0,4,0.01
2013-2-19,48,38,32,39,35,32,100,90,67,30.00,29.75,2,0,10,0.01
2013-2-20,43,37,33,39,36,33,100,97,84,30.04,30.00,1,0,7,0.04
2013-2-21,39,38,35,39,38,35,100,99,98,30.07,30.00,1,0,7,0.29
2013-2-22,42,38,33,41,38,33,100,99,93,30.05,29.68,3,1,13,0.49
2013-2-23,44,36,33,42,36,33,100,99,92,30.37,29.89,1,0,4,1.00
2013-2-24,44,39,35,40,37,35,100,93,83,30.38,29.97,2,0,9,0.07
2013-2-25,46,40,37,43,38,34,100,92,67,30.29,29.90,2,0,11,0.24
2013-2-26,45,39,33,38,35,33,100,86,65,30.35,30.20,2,0,11,0.01
2013-2-27,49,41,38,42,39,36,99,91,61,30.30,30.21,2,0,9,0.37
2013-2-28,50,44,38,50,44,38,100,99,98,30.32,30.19,3,0,11,0.76
2013-3-1,55,52,50,51,50,48,100,93,85,30.36,30.29,4,1,15,0.05
2013-3-2,54,47,37,49,44,35,99,90,79,30.29,30.07,3,0,9,0.49
2013-3-3,42,37,31,40,36,31,100,98,84,30.31,30.19,1,0,6,0.22
2013-3-4,51,38,28,39,31,27,100,78,44,30.30,29.95,2,0,7,0.01
2013-3-5,53,44,37,40,33,27,89,68,43,29.95,29.74,1,0,8,0.01
2013-3-6,42,39,36,41,38,34,99,96,90,29.90,29.58,0,0,3,0.46
2013-3-7,47,39,34,45,39,33,100,98,93,30.10,29.90,1,0,4,0.54
2013-3-8,50,38,30,44,37,30,100,94,74,30.24,30.08,1,0,6,0.01
2013-3-9,52,40,31,43,37,31,100,90,63,30.50,30.24,2,0,7,0.01
2013-3-10,46,41,36,43,39,35,99,92,76,30.50,30.43,1,0,5,0.01
2013-3-11,52,43,34,44,40,34,100,88,60,30.45,30.17,2,0,7,0.02
2013-3-12,50,48,46,49,47,43,100,97,89,30.17,30.07,2,0,11,0.79
2013-3-13,52,50,48,50,49,48,100,98,94,30.22,30.10,2,0,7,0.80
2013-3-14,52,49,46,51,48,45,100,98,93,30.16,30.04,1,0,7,0.17
2013-3-15,57,50,46,52,48,45,100,95,76,30.22,30.14,2,0,6,0.04
2013-3-16,49,43,34,47,42,34,99,96,83,30.14,29.90,2,0,9,0.49
2013-3-17,45,38,33,40,37,33,100,95,75,30.19,29.95,1,0,6,0.31
2013-3-18,50,39,33,41,36,33,100,88,55,30.25,30.11,2,0,8,0.32
2013-3-19,53,41,31,41,35,31,99,83,42,30.25,29.62,2,0,12,0.12
2013-3-20,50,43,33,47,41,32,99,94,74,30.01,29.40,4,1,19,1.42
2013-3-21,42,36,33,39,35,33,100,97,86,30.20,30.01,1,0,5,0.83
2013-3-22,43,35,29,37,33,29,99,94,74,30.37,30.20,1,0,5,0.38
2013-3-23,46,36,29,36,31,28,100,84,51,30.40,30.31,1,0,4,0.01
2013-3-24,54,39,29,37,32,27,99,79,37,30.31,30.14,2,0,8,0.01
2013-3-25,60,44,31,38,33,28,97,68,32,30.15,29.95,2,0,4,0.00
2013-3-26,60,47,36,42,38,34,96,73,44,30.02,29.97,2,0,6,0.00
2013-3-27,56,47,40,46,42,39,97,83,63,30.00,29.94,1,0,4,0.00
2013-3-28,62,50,40,49,44,39,98,84,57,30.16,30.00,2,0,6,0.09
2013-3-29,63,49,39,50,44,39,100,84,51,30.26,30.16,2,0,8,0.09
2013-3-30,67,51,37,50,42,-100,100,79,45,30.27,30.10,2,0,5,0.00
2013-3-31,71,53,39,48,44,39,99,75,38,30.10,29.93,2,0,5,0.00
2013-4-1,61,51,40,51,46,39,99,85,67,30.16,29.98,3,0,11,0.00
2013-4-2,52,49,47,49,47,45,98,93,88,30.22,30.16,1,0,4,0.03
2013-4-3,63,52,45,49,46,44,98,84,56,30.19,29.97,1,0,5,0.01
2013-4-4,55,51,47,54,49,42,98,92,80,29.97,29.66,1,0,6,0.34
2013-4-5,55,50,46,51,48,45,99,95,80,29.88,29.74,3,1,13,0.47
2013-4-6,50,46,43,47,44,40,98,93,85,29.93,29.71,3,1,12,0.29
2013-4-7,43,41,38,42,40,37,99,97,93,29.88,29.51,1,0,8,1.50
2013-4-8,51,44,40,48,43,40,99,96,81,30.28,29.88,1,0,5,0.39
2013-4-9,53,47,42,47,44,41,99,88,73,30.35,30.21,1,0,5,0.01
2013-4-10,52,48,44,49,46,42,98,92,79,30.26,29.92,3,1,10,0.27
2013-4-11,51,45,37,44,41,36,99,89,68,30.31,30.21,1,0,5,0.32
2013-4-12,47,40,35,42,38,34,99,95,77,30.21,29.69,3,0,8,0.51
2013-4-13,44,38,35,43,38,34,99,98,96,30.00,29.73,2,0,6,0.55
2013-4-14,51,42,36,43,39,36,100,91,66,30.02,29.93,1,0,7,0.25
2013-4-15,53,42,35,44,40,35,99,91,65,30.18,29.95,2,0,5,0.07
2013-4-16,54,42,31,47,38,31,100,88,55,30.41,30.18,2,0,5,0.07
2013-4-17,59,46,35,44,38,35,100,78,43,30.46,30.41,3,0,9,0.05
2013-4-18,48,44,41,46,42,38,99,93,80,30.46,30.23,1,0,6,0.38
2013-4-19,53,48,46,52,48,45,99,98,95,30.24,30.08,1,0,7,1.37
2013-4-20,51,46,44,50,46,44,99,98,93,30.29,30.20,1,0,4,0.80
2013-4-21,50,44,38,48,43,37,100,97,87,30.37,30.24,1,0,6,0.80
2013-4-22,60,45,32,45,37,27,100,77,41,30.53,30.37,2,0,9,0.01
2013-4-23,62,47,34,43,38,33,99,74,35,30.45,30.26,2,0,7,0.01
2013-4-24,68,52,36,44,39,32,99,67,28,30.33,30.09,3,0,9,0.00
2013-4-25,70,55,39,48,41,36,94,65,34,30.16,30.06,2,0,7,0.00
2013-4-26,68,55,43,53,46,39,97,74,48,30.26,30.16,2,0,8,0.00
2013-4-27,55,51,48,48,44,40,98,78,58,30.23,30.16,3,0,9,0.33
2013-4-28,55,48,44,49,46,43,99,92,73,30.23,29.96,2,0,5,0.51
2013-4-29,54,46,39,44,38,32,99,76,44,30.16,29.93,2,1,15,0.23
2013-4-30,53,42,34,44,36,28,97,78,48,30.45,30.16,2,0,7,0.14
2013-5-1,63,47,30,42,36,29,99,70,38,30.58,30.45,2,0,7,0.04
2013-5-2,70,53,39,48,41,37,96,68,36,30.56,30.38,2,0,9,0.00
2013-5-3,69,54,40,54,45,39,98,75,51,30.41,30.25,2,0,8,0.00
2013-5-4,78,60,44,53,46,42,99,67,29,30.26,30.03,2,0,11,0.00
2013-5-5,81,64,46,55,48,43,90,61,30,30.03,29.81,2,0,9,0.00
2013-5-6,85,67,49,56,48,41,84,55,28,29.88,29.79,2,0,6,0.00
2013-5-7,71,59,51,56,51,46,93,77,55,30.01,29.84,2,0,5,0.00
2013-5-8,62,54,49,55,51,48,98,91,76,30.17,30.01,1,0,4,0.00
2013-5-9,72,57,46,60,52,46,100,86,62,30.24,30.14,2,0,5,0.01
2013-5-10,77,61,48,60,52,-100,100,77,48,30.22,30.14,2,0,7,0.01
2013-5-11,81,65,54,59,53,-100,96,71,40,30.20,30.02,2,0,7,0.00
2013-5-12,68,61,56,61,57,53,98,87,68,30.11,30.03,1,0,7,0.26
2013-5-13,60,54,45,58,52,44,97,94,78,30.21,29.95,3,0,10,0.24
2013-5-14,62,52,44,46,43,38,96,75,42,30.24,30.14,3,0,7,0.01
2013-5-15,67,52,42,50,46,41,98,80,48,30.14,30.03,2,0,6,0.10
2013-5-16,69,54,49,56,37,-100,99,85,59,30.04,29.89,2,0,6,0.17
2013-5-17,56,53,50,54,48,-100,98,93,85,30.07,29.96,1,0,6,0.18
2013-5-18,58,53,49,52,49,47,96,86,68,30.29,30.07,2,0,7,0.01
2013-5-19,60,53,48,54,50,47,98,91,72,30.42,30.29,1,0,4,0.07
2013-5-20,67,54,43,56,49,43,99,85,53,30.37,29.92,3,0,6,0.01
2013-5-21,52,48,45,50,46,44,98,95,88,29.93,29.80,1,0,5,1.07
2013-5-22,50,46,43,49,44,42,99,97,89,29.96,29.86,1,0,4,0.66
2013-5-23,55,47,40,50,45,40,100,94,76,30.03,29.94,2,0,7,0.06
2013-5-24,59,50,42,50,46,41,100,87,65,30.06,29.99,1,0,5,0.01
2013-5-25,61,52,47,49,47,45,99,84,59,30.06,30.00,2,0,7,0.02
2013-5-26,60,53,47,55,50,45,98,90,73,30.01,29.96,2,0,6,0.04
2013-5-27,58,54,48,56,52,47,99,95,88,29.99,29.75,1,0,5,0.25
2013-5-28,58,54,50,56,52,49,99,93,82,29.91,29.79,2,0,9,0.20
2013-5-29,55,50,48,52,49,47,99,96,88,29.98,29.69,1,0,3,0.49
2013-5-30,60,52,46,52,48,45,99,90,65,30.26,29.98,3,0,9,0.33
2013-5-31,66,54,46,52,48,45,98,80,49,30.36,30.25,2,0,7,0.01
2013-6-1,69,58,45,54,50,44,98,78,51,30.27,30.08,3,0,8,0.00
2013-6-2,68,56,50,54,51,48,99,83,55,30.11,30.07,2,0,7,0.04
2013-6-3,70,58,46,58,52,45,99,81,59,30.14,30.09,2,0,6,0.01
2013-6-4,78,62,47,60,53,47,100,75,44,30.15,30.06,2,0,6,0.00
2013-6-5,76,62,50,62,55,48,98,78,55,30.13,30.07,2,0,8,0.00
2013-6-6,77,63,49,63,53,40,99,74,46,30.08,30.04,3,0,6,0.00
2013-6-7,65,58,51,54,48,41,89,70,51,30.18,30.05,2,0,9,0.00
2013-6-8,65,56,48,54,49,46,92,78,61,30.21,30.14,2,0,8,0.00
2013-6-9,66,56,48,51,48,44,95,76,49,30.14,30.06,3,0,9,0.00
2013-6-10,69,56,44,54,48,43,98,76,47,30.07,29.91,2,0,7,0.00
2013-6-11,59,53,47,53,49,45,98,86,62,30.12,29.95,2,0,10,0.07
2013-6-12,65,54,46,52,48,45,99,83,52,30.16,30.12,2,0,9,0.05
2013-6-13,63,55,50,56,52,49,99,89,70,30.24,30.16,1,0,5,0.09
2013-6-14,65,56,50,54,50,48,96,81,58,30.26,30.08,2,0,6,0.01
2013-6-15,76,60,45,60,53,44,99,79,51,30.09,29.94,2,0,10,0.00
2013-6-16,72,61,51,62,56,50,99,84,59,30.11,30.01,2,0,7,0.03
2013-6-17,76,62,50,59,53,49,99,77,41,30.12,29.92,2,0,8,0.11
2013-6-18,70,60,53,56,52,47,99,79,47,30.01,29.90,2,0,10,0.11
2013-6-19,64,56,53,57,53,50,96,90,75,30.03,29.94,1,0,3,0.23
2013-6-20,55,52,51,54,51,50,99,97,92,30.11,29.98,0,0,2,1.49
2013-6-21,65,64,60,55,54,52,83,72,63,30.19,30.16,1,0,6,0.34
2013-6-22,76,69,49,58,55,49,100,62,45,30.11,29.89,2,1,6,0.00
2013-6-23,68,62,55,63,59,53,98,89,74,29.89,29.62,1,0,5,0.03
2013-6-24,64,59,55,60,57,54,99,94,76,29.73,29.61,2,0,6,0.53
2013-6-25,69,59,53,62,56,52,99,91,65,29.90,29.70,2,0,11,0.63
2013-6-26,69,61,53,63,58,53,99,90,71,30.12,29.88,2,0,6,0.42
2013-6-27,69,62,56,65,60,55,99,93,78,30.24,30.08,1,0,5,0.08
2013-6-28,85,71,58,70,64,58,100,80,48,30.23,30.09,2,0,5,0.01
2013-6-29,82,71,61,70,64,60,98,81,58,30.14,30.03,2,0,5,0.00
2013-6-30,90,74,60,73,66,60,100,77,48,30.05,29.90,2,0,6,0.00
2013-7-1,84,72,62,69,62,57,91,73,55,30.04,29.95,3,0,7,0.00
2013-7-2,78,66,56,64,57,51,93,74,52,30.14,30.05,3,1,9,0.00
2013-7-3,75,63,52,59,53,46,89,70,49,30.18,30.09,2,0,7,0.00
2013-7-4,69,60,51,57,53,48,95,78,60,30.15,30.06,3,0,6,0.00
2013-7-5,71,60,51,58,54,49,95,83,61,30.06,29.98,2,0,5,0.00
2013-7-6,77,63,53,62,56,52,99,81,55,30.00,29.90,2,0,8,0.00
2013-7-7,76,66,55,62,57,52,95,75,50,29.97,29.91,2,0,7,0.00
2013-7-8,78,62,53,63,56,-100,98,84,55,30.12,29.97,2,0,6,0.00
2013-7-9,81,66,55,66,58,50,100,78,53,30.14,30.05,2,0,7,0.00
2013-7-10,73,61,53,62,52,-100,89,76,60,30.08,30.00,3,0,9,0.00
2013-7-11,68,57,49,55,50,45,92,78,54,30.11,30.03,3,0,8,0.00
2013-7-12,65,55,47,57,50,45,96,84,65,30.14,30.03,2,0,5,0.00
2013-7-13,74,61,46,57,51,45,99,74,47,30.22,30.13,2,1,10,0.00
2013-7-14,78,63,49,59,51,43,99,69,38,30.16,30.03,2,0,7,0.00
2013-7-15,78,62,47,62,52,46,98,72,43,30.08,29.93,3,1,10,0.00
2013-7-16,86,68,53,64,57,50,96,71,41,29.95,29.83,3,0,7,0.00
2013-7-17,68,64,59,61,59,55,96,84,71,30.22,29.91,2,0,8,0.04
2013-7-18,75,62,54,63,57,52,94,84,61,30.26,30.15,3,0,7,0.01
2013-7-19,77,62,53,64,57,52,99,87,62,30.20,30.07,3,0,8,0.00
2013-7-20,74,59,52,63,55,-100,99,90,62,30.11,29.99,3,0,6,0.00
2013-7-21,75,61,52,64,58,51,99,90,65,30.01,29.94,2,0,5,0.00
2013-7-22,77,62,54,65,58,53,99,89,64,30.09,29.96,2,0,4,0.01
2013-7-23,83,65,54,64,58,54,99,80,45,30.09,30.00,3,1,7,0.01
2013-7-24,81,67,54,61,56,50,97,70,49,30.08,30.03,2,0,7,0.00
2013-7-25,80,65,52,62,54,49,94,70,42,30.13,30.07,2,0,7,0.00
2013-7-26,80,63,51,60,52,44,96,70,40,30.17,30.11,2,0,7,0.00
2013-7-27,75,62,49,59,52,47,96,73,47,30.18,30.03,2,0,8,0.00
2013-7-28,71,60,51,58,54,50,98,82,60,30.04,29.98,2,0,8,0.00
2013-7-29,73,62,56,59,55,53,93,81,61,30.03,29.98,2,0,5,0.00
2013-7-30,76,63,54,62,57,53,99,84,59,30.16,30.03,2,0,6,0.00
2013-7-31,72,60,53,63,58,52,99,92,71,30.14,30.01,3,0,5,0.02
2013-8-1,62,59,56,60,57,55,99,95,87,30.10,30.05,1,0,4,0.02
2013-8-2,59,57,56,58,56,55,99,97,92,30.16,30.09,1,0,5,0.56
2013-8-3,71,63,57,64,60,57,99,91,74,30.16,30.09,2,0,7,0.01
2013-8-4,78,66,57,67,61,56,98,85,63,30.10,29.98,2,0,6,0.00
2013-8-5,81,67,57,67,60,54,100,79,53,30.04,29.97,2,0,8,0.00
2013-8-6,81,66,54,63,57,53,100,75,45,30.03,29.95,2,0,6,0.00
2013-8-7,82,67,54,62,56,52,96,71,40,30.04,29.98,2,0,6,0.00
2013-8-8,79,66,56,65,58,51,96,76,56,30.06,29.98,2,0,8,0.00
2013-8-9,80,68,57,66,58,51,94,73,56,30.00,29.87,2,0,5,0.00
2013-8-10,79,68,61,67,63,59,99,85,62,30.05,29.89,2,0,10,0.10
2013-8-11,71,63,56,64,60,55,98,89,72,30.09,30.01,2,0,5,0.06
2013-10-2,51,48,46,50,48,45,100,98,95,30.15,30.05,1,0,3,0.23
2013-10-3,55,49,45,51,48,45,100,95,78,30.43,30.15,0,0,2,0.01
2013-10-4,63,50,39,51,46,39,100,86,56,30.45,30.34,1,0,4,0.00
2013-10-5,67,52,43,53,45,-100,99,82,52,30.35,30.13,1,0,4,0.00
2013-10-6,74,57,46,54,48,41,100,76,30,30.12,29.88,2,0,11,0.01
2013-10-7,55,50,48,51,50,47,100,97,83,30.00,29.88,2,0,9,1.01
2013-10-8,54,48,41,51,47,40,100,97,84,30.06,29.94,2,0,6,0.68
2013-10-9,55,45,37,49,43,37,100,94,74,30.11,29.94,2,0,6,0.01
2013-10-10,56,49,44,51,47,43,100,94,77,30.05,29.92,1,0,7,0.00
2013-10-18,58,47,40,52,46,40,100,96,78,30.22,30.13,1,0,3,0.01
2013-10-19,49,43,38,48,41,-100,100,98,96,30.17,30.12,1,0,3,0.01
2013-10-20,47,44,42,47,44,42,100,100,100,30.19,30.13,0,0,2,0.02
2013-10-21,48,45,41,48,45,41,100,100,100,30.15,30.09,1,0,2,0.02
2013-10-22,51,46,41,51,46,41,100,100,99,30.10,30.01,1,0,3,0.01
2013-10-23,61,47,38,57,47,38,100,98,85,30.03,29.96,1,0,2,0.01
2013-10-24,55,46,40,51,46,40,100,98,85,30.07,30.00,2,0,3,0.01
2013-10-25,48,46,45,48,46,45,100,100,98,30.29,30.17,0,0,1,0.03
2013-10-26,49,46,44,47,44,-100,100,97,91,30.32,30.17,1,0,4,0.01
2013-10-27,52,46,42,51,46,42,100,99,96,30.17,29.88,1,0,8,0.30
2013-10-28,56,45,39,44,39,-100,100,85,51,29.93,29.86,2,0,8,0.01
2013-10-29,53,41,33,42,38,33,100,88,61,30.01,29.93,1,0,3,0.01
2013-10-30,54,44,35,46,41,35,100,91,68,30.12,30.01,2,0,7,0.04
2013-11-4,43,36,30,41,36,30,100,97,84,30.16,30.05,1,0,2,0.08
2013-11-5,48,44,39,48,44,39,100,100,99,30.23,29.99,0,0,3,0.26
2013-11-6,50,44,39,49,44,39,100,99,93,30.29,30.02,1,0,4,0.05
2013-11-7,48,46,45,48,46,44,100,99,98,30.00,29.68,3,1,11,1.15
2013-11-8,50,45,42,49,45,41,100,98,89,30.14,29.95,2,0,5,0.27
2013-11-9,50,42,36,48,40,-100,100,95,83,30.14,30.04,1,0,3,0.05
2013-11-10,47,45,43,47,45,43,100,100,99,30.13,30.07,0,0,2,0.20
2013-11-11,51,49,46,47,46,44,98,89,77,30.01,29.98,1,0,4,0.00
2013-11-12,55,52,46,54,51,45,100,97,80,30.35,30.01,2,0,7,0.01
2013-11-13,53,50,47,51,49,46,100,96,88,30.41,30.30,2,0,4,0.01
2013-11-14,48,44,39,48,44,39,100,100,99,30.29,30.03,1,0,2,0.16
2013-11-15,44,42,41,44,42,41,100,100,99,30.03,29.32,2,1,8,0.97
2013-12-4,30,26,23,30,26,23,100,98,91,30.30,30.24,0,0,2,0.01
2013-12-5,30,25,21,27,24,19,99,95,81,30.27,30.15,1,0,3,0.00
2013-12-6,27,21,16,19,15,12,94,79,56,30.19,30.10,1,0,4,0.00
2013-12-7,23,16,13,14,10,-100,93,79,56,30.36,30.18,1,0,2,0.00
2013-12-8,26,20,14,18,16,12,95,85,67,30.51,30.36,1,0,2,0.00
2013-12-9,31,26,18,28,24,17,97,90,84,30.53,30.43,0,0,2,0.00
2013-12-10,32,30,29,32,30,28,99,98,97,30.44,30.41,0,0,1,0.00